{"data":{"norad_id":43162,"intl_designator":"2018-009A","name":"SBIRS GEO-3 (USA 282)","alt_names":[],"object_type":"PAYLOAD","status":"ACTIVE","operator":null,"country":"US","launch_date":"2018-01-20","launch_site_code":"AFETR","launch_vehicle":null,"mission":null,"orbit_class":"UNKNOWN","rcs_meters":null,"size_class":null,"mass_kg":null,"dimensions":null,"purposes":["comms"],"wikipedia_slug":null,"has_3d_model":false,"image_url":null,"decayed_at":null,"tle_current":{"epoch":"2026-09-20T05:11:44.591712Z","epoch_age_seconds":50277,"freshness":"FRESH","line1":"1 43162U 18009A   26263.21648833  .00000126  00000+0  00000+0 0  9995","line2":"2 43162   2.2627  16.3017 0001930 157.2520 104.1109  1.00272853 31794","mean_motion":1.00272853,"eccentricity":0.000193,"inclination_deg":2.2627,"raan_deg":16.3017,"arg_perigee_deg":157.252,"mean_anomaly_deg":104.1109,"bstar":0,"rev_number":3179,"period_min":1436.0816082494,"perigee_km":35778.157829194,"apogee_km":35794.433300164,"semimajor_km":42164.432564679,"source":"CELESTRAK","updated_at":"2026-09-20T09:00:35.258149Z"}}}